Date String (YYYY-MM-DD hh:mm:ss) UTC,Instrument flags,Ambient pressure (hPa),Sample flow (lpm),Bypass flow (lpm),Sample temperature (°C),Ambient temperature (°C),ASC tube jacket temperature (°C),LED temperature (°C),Box temperature (°C),Sample RH (%),Span deviation,Mass concentration (μg/m³),Mass concentration (μg/m³),Mass concentration (μg/m³)
DateTimeUTC,F1_M11,P_M11,Q1_M11,Q2_M11,T1_M11,T2_M11,T3_M11,T4_M11,T5_M11,U1_M11,ZSPAN_M11,X0_M11,X2_M11,X1_M11
2022-03-10 15:00:00,,0823.3,5.01,0.00,22.2,20.9,00.0,31.4,23.7,06.6,0000.0,0005.45,0003.99,0003.74
2022-03-10 15:01:00,,0823.3,4.99,0.00,22.1,20.8,00.0,31.3,23.6,06.6,0000.0,0005.40,0003.95,0003.71
2022-03-10 15:02:00,,0823.3,5.00,0.00,22.1,20.7,00.0,31.3,23.6,06.6,0000.0,0005.23,0003.90,0003.67
2022-03-10 15:03:00,,0823.4,5.00,0.00,22.0,21.1,00.0,31.3,23.6,06.6,0000.0,0005.23,0003.87,0003.64
2022-03-10 15:04:00,,0823.3,4.99,0.00,22.2,22.3,00.0,31.3,23.9,06.5,0000.0,0006.00,0003.88,0003.62
2022-03-10 15:05:00,,0823.4,5.01,0.00,22.3,23.2,00.0,31.3,24.2,06.5,0000.0,0006.55,0003.87,0003.59
2022-03-10 15:06:00,,0823.4,5.00,0.00,22.4,23.2,00.0,31.4,24.4,06.4,0000.0,0006.46,0003.84,0003.59
2022-03-10 15:07:00,,0823.4,4.99,0.00,22.4,22.7,00.0,31.4,24.3,06.4,0000.0,0006.52,0003.84,0003.59
2022-03-10 15:08:00,,0823.4,5.00,0.00,22.4,22.3,00.0,31.4,24.2,06.4,0000.0,0006.58,0003.87,0003.60
2022-03-10 15:09:00,,0823.3,5.00,0.00,22.4,22.0,00.0,31.4,24.0,06.5,0000.0,0006.53,0003.86,0003.59
2022-03-10 15:10:00,,0823.4,5.00,0.00,22.3,21.7,00.0,31.3,24.0,06.5,0000.0,0006.62,0003.84,0003.57
2022-03-10 15:11:00,,0823.4,5.00,0.00,22.3,21.5,00.0,31.3,23.9,06.5,0000.0,0006.52,0003.80,0003.54
2022-03-10 15:12:00,,0823.4,5.00,0.00,22.2,21.3,00.0,31.3,23.8,06.4,0000.0,0006.45,0003.78,0003.52
2022-03-10 15:13:00,,0823.4,5.00,0.00,22.1,21.1,00.0,31.3,23.7,06.4,0000.0,0006.48,0003.78,0003.52
2022-03-10 15:14:00,,0823.3,4.99,0.00,22.1,20.9,00.0,31.2,23.6,06.5,0000.0,0006.49,0003.77,0003.52
2022-03-10 15:15:00,,0823.3,5.02,0.00,22.0,20.8,00.0,31.2,23.5,06.4,0000.0,0005.75,0003.74,0003.51
2022-03-10 15:16:00,,0823.3,4.99,0.00,22.0,20.8,00.0,31.2,23.5,06.5,0000.0,0004.97,0003.70,0003.51
2022-03-10 15:17:00,,0823.4,5.01,0.00,21.9,20.7,00.0,31.2,23.5,06.5,0000.0,0004.98,0003.71,0003.51
2022-03-10 15:18:00,,0823.4,5.01,0.00,21.9,21.2,00.0,31.1,23.5,06.5,0000.0,0004.92,0003.71,0003.50
2022-03-10 15:19:00,,0823.4,4.99,0.00,22.1,22.3,00.0,31.1,23.8,06.5,0000.0,0004.90,0003.69,0003.49
2022-03-10 15:20:00,,0823.4,5.00,0.00,22.2,23.0,00.0,31.2,24.1,06.4,0000.0,0004.91,0003.69,0003.49
2022-03-10 15:21:00,,0823.4,5.01,0.00,22.3,22.8,00.0,31.2,24.2,06.4,0000.0,0004.86,0003.70,0003.50
2022-03-10 15:22:00,,0823.3,4.99,0.00,22.3,22.5,00.0,31.2,24.1,06.4,0000.0,0004.93,0003.73,0003.52
2022-03-10 15:23:00,,0823.3,5.01,0.00,22.3,22.3,00.0,31.2,24.1,06.4,0000.0,0004.89,0003.73,0003.53
2022-03-10 15:24:00,,0823.3,4.99,0.00,22.3,22.0,00.0,31.2,24.0,06.4,0000.0,0004.83,0003.74,0003.54
2022-03-10 15:25:00,,0823.4,5.01,0.00,22.2,21.8,00.0,31.2,23.9,06.3,0000.0,0004.83,0003.78,0003.55
2022-03-10 15:26:00,,0823.3,5.01,0.00,22.2,21.5,00.0,31.2,23.9,06.3,0000.0,0004.90,0003.80,0003.56
2022-03-10 15:27:00,,0823.2,4.99,0.00,22.2,21.4,00.0,31.2,23.8,06.2,0000.0,0004.94,0003.81,0003.58
2022-03-10 15:28:00,,0823.2,4.99,0.00,22.2,21.3,00.0,31.2,23.8,06.2,0000.0,0004.90,0003.81,0003.59
2022-03-10 15:29:00,,0823.3,5.01,0.00,22.1,21.1,00.0,31.2,23.7,06.3,0000.0,0005.03,0003.81,0003.60
2022-03-10 15:30:00,,0823.3,5.00,0.00,22.0,20.9,00.0,31.2,23.6,06.2,0000.0,0005.34,0003.81,0003.61
2022-03-10 15:31:00,,0823.3,5.01,0.00,22.0,20.9,00.0,31.1,23.5,06.1,0000.0,0005.30,0003.81,0003.62
2022-03-10 15:32:00,,0823.4,5.00,0.00,21.9,20.9,00.0,31.1,23.4,06.1,0000.0,0005.25,0003.80,0003.62
2022-03-10 15:33:00,,0823.4,5.01,0.00,22.0,21.9,00.0,31.1,23.7,06.0,0000.0,0005.17,0003.78,0003.61
2022-03-10 15:34:00,,0823.4,5.00,0.00,22.1,22.8,00.0,31.2,24.0,05.9,0000.0,0005.32,0003.80,0003.61
2022-03-10 15:35:00,,0823.3,4.99,0.00,22.2,22.6,00.0,31.2,24.0,05.8,0000.0,0005.41,0003.81,0003.62
2022-03-10 15:36:00,,0823.2,4.99,0.00,22.1,22.0,00.0,31.2,23.8,05.8,0000.0,0005.32,0003.79,0003.62
2022-03-10 15:37:00,,0823.3,5.01,0.00,22.1,21.6,00.0,31.1,23.6,05.8,0000.0,0005.30,0003.80,0003.63
2022-03-10 15:38:00,,0823.2,4.99,0.00,22.0,21.2,00.0,31.1,23.4,05.7,0000.0,0005.42,0003.81,0003.63
2022-03-10 15:39:00,,0823.3,5.00,0.00,21.9,21.0,00.0,31.1,23.3,05.7,0000.0,0005.63,0003.83,0003.64
2022-03-10 15:40:00,,0823.3,5.01,0.00,21.8,20.9,00.0,31.0,23.2,05.8,0000.0,0005.47,0003.84,0003.65
2022-03-10 15:41:00,,0823.3,4.99,0.00,21.7,20.7,00.0,31.0,23.2,05.8,0000.0,0005.33,0003.85,0003.66
2022-03-10 15:42:00,,0823.3,5.01,0.00,21.7,20.5,00.0,31.0,23.1,05.8,0000.0,0006.13,0003.88,0003.68
2022-03-10 15:43:00,,0823.2,5.00,0.00,21.6,20.8,00.0,30.9,23.1,05.8,0000.0,0006.28,0003.94,0003.72
2022-03-10 15:44:00,,0823.2,4.99,0.00,21.8,22.1,00.0,31.0,23.5,05.7,0000.0,0006.36,0003.98,0003.75
2022-03-10 15:45:00,,0823.2,5.00,0.00,21.9,22.8,00.0,31.0,23.8,05.6,0000.0,0006.33,0003.99,0003.78
2022-03-10 15:46:00,,0823.2,5.01,0.00,22.0,22.3,00.0,31.0,23.7,05.6,0000.0,0006.31,0004.03,0003.81
2022-03-10 15:47:00,,0823.2,4.98,0.00,21.9,21.8,00.0,31.0,23.6,05.7,0000.0,0006.35,0004.05,0003.84
2022-03-10 15:48:00,,0823.2,5.01,0.00,21.9,21.4,00.0,31.0,23.4,05.6,0000.0,0006.46,0004.09,0003.86
2022-03-10 15:49:00,,0823.2,5.00,0.00,21.8,21.1,00.0,30.9,23.3,05.5,0000.0,0006.41,0004.12,0003.91
2022-03-10 15:50:00,,0823.2,5.00,0.00,21.7,20.9,00.0,30.9,23.2,05.5,0000.0,0006.36,0004.16,0003.96
2022-03-10 15:51:00,,0823.2,4.99,0.00,21.7,20.8,00.0,30.9,23.2,05.6,0000.0,0006.38,0004.21,0004.01
2022-03-10 15:52:00,,0823.2,5.01,0.00,21.6,20.7,00.0,30.8,23.2,05.6,0000.0,0006.32,0004.25,0004.05
2022-03-10 15:53:00,,0823.2,4.99,0.00,21.6,20.6,00.0,30.8,23.2,05.6,0000.0,0005.75,0004.30,0004.10
2022-03-10 15:54:00,,0823.3,5.00,0.00,21.6,20.7,00.0,30.8,23.2,05.6,0000.0,0005.84,0004.33,0004.14
2022-03-10 15:55:00,,0823.3,5.01,0.00,21.6,21.4,00.0,30.8,23.3,05.5,0000.0,0005.99,0004.38,0004.18
2022-03-10 15:56:00,,0823.3,5.00,0.00,21.8,22.6,00.0,30.8,23.7,05.5,0000.0,0006.13,0004.43,0004.22
2022-03-10 15:57:00,,0823.3,5.01,0.00,22.0,23.0,00.0,30.9,23.9,05.4,0000.0,0006.24,0004.48,0004.27
2022-03-10 15:58:00,,0823.2,5.00,0.00,22.0,22.6,00.0,30.9,23.9,05.3,0000.0,0006.56,0004.52,0004.32
2022-03-10 15:59:00,,0823.2,4.99,0.00,22.0,22.3,00.0,30.9,23.9,05.3,0000.0,0006.63,0004.55,0004.35
